[[{"header":{"parameterUnit":"m.s-1","parameterCategory":1,"la1":30.2991,"la2":30.254,"lo1":-89.0895,"lo2":-89.0444,"dy":0.0017,"dx":0.0017,"nx":28,"ny":28,"refTime":"2025-09-15T21:00:00:Z","depth":0,"parameterNumber":2,"parameterNumberName":"U-component_of_WINDS"},"data":[0,0,0,0,0,0,0,0,0,0,0,0,0,0,0,0,0,0,0,0,0,0,0,0,0,0,0,0,0,0,0,0,0,0,0,0,0,0,0,0,0,0,0,0,0,0,0,0,0,0,0,0,0,0,0,0,0,0,0.2072,0.2072,0,0.2074,0.2074,0.2075,0.2078,0.2078,0.2078,0.2078,0.208,0.208,0.208,0,0,0,0,0,0,0,0,0,0,0,0,0,0.2067,0.2067,0.2072,0.2072,0.2072,0.2074,0.2074,0.2075,0.2078,0.2078,0.2078,0.2078,0.208,0.208,0.208,0,0,0,0,0,0,0,0,0,0,0,0,0,0.2069,0.2067,0.2072,0.2074,0.2074,0.2074,0.2074,0.2075,0.2078,0.2078,0.2078,0.2078,0.208,0.208,0.208,0.2079,0,0,0.208,0.208,0,0,0,0,0,0,0,0,0.2069,0.207,0.2073,0.2074,0.2074,0.2076,0.2074,0.2076,0.2078,0.2076,0.2078,0.2078,0.2079,0.2079,0.2079,0.2079,0.2079,0.208,0.208,0.208,0.208,0,0,0,0,0,0,0,0.2069,0.2069,0.2073,0.2073,0.2074,0.2074,0.2074,0.2074,0.2077,0.2076,0.2077,0.2077,0.2079,0.2079,0.2079,0.2079,0.208,0.208,0.208,0.208,0.2076,0.2076,0,0,0,0,0,0,0.2069,0.2069,0.2073,0.2073,0.2072,0.2074,0.2074,0.2075,0.2077,0.2077,0.2077,0.2077,0.2079,0.2079,0.2079,0.2077,0.208,0.208,0.208,0.2076,0.2076,0.2076,0,0,0,0,0,0,0.2069,0.2069,0.2072,0.2071,0.2072,0.2074,0.2075,0.2075,0.2075,0.2077,0.2078,0.2077,0.2079,0.2079,0.2078,0.2077,0.208,0.208,0.2076,0.2076,0.2076,0.2072,0,0,0,0,0,0,0.2069,0.2069,0.2069,0.2071,0.2072,0.2072,0.2075,0.2075,0.2076,0.2076,0.2077,0.2078,0.2079,0.2078,0.2078,0.2077,0.208,0.2076,0.2076,0.2076,0.2072,0.2072,0.2071,0,0,0,0,0,0.2068,0.2068,0.2069,0.2069,0.2072,0.2072,0.2072,0.2074,0.2075,0.2075,0.2076,0.2078,0.2077,0.2078,0.2078,0.2077,0.2076,0.2076,0.2076,0.2072,0.2072,0.2071,0,0,0,0,0,0,0.2066,0.2068,0.207,0.207,0.2071,0.2073,0.2072,0.2074,0.2074,0.2074,0.2076,0.2077,0.2075,0.2076,0.2077,0.2074,0.2077,0.2076,0.2074,0.2073,0.2073,0.2073,0.208,0,0,0,0,0,0.2065,0.2066,0.2068,0.2068,0.2068,0.207,0.2071,0.2072,0.2073,0.2073,0.2074,0.2074,0.2074,0.2074,0.2074,0.2072,0.2072,0.2071,0.207,0.207,0.207,0.2067,0.2066,0.2075,0.2075,0.2075,0,0,0.2064,0.2066,0.2066,0.2068,0.2068,0.2068,0.2071,0.2071,0.207,0.2073,0.2072,0.2073,0.2073,0.2071,0.2071,0.2072,0.2067,0.207,0.2069,0.2069,0.2067,0.2066,0.2065,0.2074,0.2074,0.2074,0,0,0.2062,0.2064,0.2064,0.2064,0.2065,0.2066,0.2066,0.2067,0.2068,0.2067,0.2068,0.2068,0.2068,0.2067,0.2067,0.2063,0.2064,0.2063,0.206,0.2058,0.2057,0.2057,0.2054,0.2054,0.2063,0.2063,0.2063,0,0.2061,0.2061,0.2063,0.2063,0.2063,0.2065,0.2064,0.2064,0.2065,0.2065,0.2066,0.2065,0.2065,0.2063,0.2062,0.2062,0.2061,0.2063,0.2057,0.2057,0.2056,0.2054,0.2053,0.2063,0.2063,0.2063,0.2063,0,0.2059,0.2059,0.2058,0.2059,0.2059,0.2058,0.2059,0.2059,0.2059,0.206,0.2058,0.2059,0.2058,0.2058,0.2059,0.2055,0.2056,0.2057,0.2059,0.2055,0.2053,0.2052,0.2062,0.2062,0.2062,0.2063,0,0,0.2056,0.2057,0.2057,0.2056,0.2057,0.2056,0.2055,0.2054,0.2053,0.2053,0.2052,0.2051,0.2052,0.2052,0.2052,0.2051,0.2046,0.2052,0.2052,0.205,0.204,0.2039,0.2038,0.2047,0.2047,0.2046,0.204,0,0.2054,0.2052,0.2053,0.2051,0.205,0.2051,0.205,0.205,0.205,0.2048,0.2048,0.2047,0.2049,0.2049,0.2047,0.2047,0.2044,0.2047,0.2044,0.2044,0.2044,0.2037,0.2036,0.203,0.2039,0.2039,0.2039,0,0.2051,0.2051,0.2048,0.2047,0.2047,0.2046,0.2045,0.2044,0.2043,0.2043,0.2042,0.2043,0.204,0.2043,0.2039,0.2041,0.204,0.2039,0.2039,0.2039,0.2041,0.2035,0.2028,0.2027,0.2038,0.2038,0.2038,0,0.2048,0.2047,0.2045,0.2045,0.2044,0.2043,0.2043,0.2042,0.2041,0.2039,0.2038,0.2037,0.2036,0.2034,0.2034,0.2036,0.203,0.2032,0.2029,0.2029,0.2027,0.2027,0.2019,0.2028,0.2028,0.2028,0.2028,0,0.2045,0.2044,0.2044,0.2042,0.204,0.204,0.2038,0.2037,0.2036,0.2034,0.2035,0.2033,0.2034,0.2031,0.2031,0.2027,0.2027,0.2026,0.2026,0.2026,0.2026,0.2025,0.2025,0.2027,0.2027,0.2028,0.2028,0,0.2042,0.2042,0.204,0.2039,0.2038,0.2037,0.2035,0.2034,0.2033,0.2031,0.203,0.2029,0.2026,0.2026,0.2023,0.2023,0.2018,0.2019,0.2018,0.2018,0.2014,0.2014,0.2004,0.2002,0.2013,0.2013,0.2013,0,0.204,0.2039,0.2037,0.2036,0.2035,0.2033,0.2032,0.2032,0.203,0.2028,0.2026,0.2023,0.2021,0.2016,0.2015,0.2012,0.2013,0.2009,0.2012,0.2011,0.2011,0.2011,0.201,0.2009,0.2008,0.2008,0.2008,0,0.2036,0.2036,0.2034,0.2032,0.203,0.2028,0.2026,0.2025,0.2025,0.2023,0.202,0.2018,0.2014,0.2011,0.2008,0.2006,0.2007,0.2007,0.2006,0.2006,0.2005,0.2004,0.2016,0.2008,0.2008,0.2008,0.2008,0.2008,0.2033,0.2031,0.2029,0.2026,0.2025,0.2023,0.2021,0.202,0.2017,0.2014,0.2014,0.201,0.2008,0.2004,0.2002,0.1999,0.2,0.1998,0.1998,0.1997,0.1997,0.2006,0.1998,0.1998,0.1998,0.1998,0.1998,0,0.2028,0.2026,0.2024,0.2021,0.2019,0.2019,0.2017,0.2015,0.2012,0.2009,0.2007,0.2002,0.1999,0.1997,0.1993,0.199,0.199,0.1989,0.1989,0.1989,0.1996,0.1997,0.1989,0.1989,0.1989,0.1989,0.1989,0.1989,0.2025,0.2022,0.2021,0.2016,0.2014,0.2011,0.2009,0.2007,0.2005,0.2,0.1996,0.1995,0.1993,0.1988,0.1985,0.1984,0.1982,0.1981,0.198,0.1988,0.1988,0.1989,0.199,0.1981,0.1981,0.1973,0.1973,0.1973]},{"header":{"parameterUnit":"m.s-1","parameterCategory":1,"la1":30.2991,"la2":30.254,"lo1":-89.0895,"lo2":-89.0444,"dy":0.0017,"dx":0.0017,"nx":28,"ny":28,"refTime":"2025-09-15T21:00:00:Z","depth":0,"parameterNumber":3,"parameterNumberName":"V-component_of_WINDS"},"data":[0,0,0,0,0,0,0,0,0,0,0,0,0,0,0,0,0,0,0,0,0,0,0,0,0,0,0,0,0,0,0,0,0,0,0,0,0,0,0,0,0,0,0,0,0,0,0,0,0,0,0,0,0,0,0,0,0,0,2.7903,2.7903,0,2.7895,2.7895,2.7895,2.7845,2.7844,2.7842,2.7841,2.7833,2.7834,2.7835,0,0,0,0,0,0,0,0,0,0,0,0,0,2.7874,2.7875,2.7903,2.7903,2.7903,2.7895,2.7895,2.7895,2.7845,2.7843,2.7842,2.7841,2.7833,2.7834,2.7835,0,0,0,0,0,0,0,0,0,0,0,0,0,2.7878,2.7875,2.7903,2.7877,2.7875,2.7895,2.7895,2.7895,2.7845,2.7843,2.7842,2.784,2.7832,2.7834,2.7835,2.788,0,0,2.7839,2.784,0,0,0,0,0,0,0,0,2.7878,2.7879,2.7881,2.7879,2.7876,2.7869,2.7882,2.789,2.7846,2.7856,2.7841,2.7839,2.7846,2.7847,2.7849,2.788,2.7879,2.7839,2.784,2.7841,2.7841,0,0,0,0,0,0,0,2.7878,2.7879,2.79,2.7881,2.7878,2.7865,2.7864,2.7883,2.7862,2.7855,2.7852,2.7851,2.7845,2.7848,2.7849,2.7879,2.7839,2.784,2.7841,2.7842,2.7945,2.7946,0,0,0,0,0,0,2.7881,2.788,2.79,2.79,2.7873,2.7867,2.7866,2.7873,2.7861,2.7858,2.7853,2.7849,2.7846,2.7847,2.7848,2.7898,2.7841,2.7842,2.7843,2.7943,2.7945,2.7947,0,0,0,0,0,0,2.7881,2.7884,2.7901,2.7889,2.789,2.787,2.7879,2.7874,2.7877,2.786,2.7856,2.786,2.7845,2.7846,2.7872,2.7897,2.7843,2.7844,2.794,2.7943,2.7946,2.8001,0,0,0,0,0,0,2.788,2.7884,2.7901,2.789,2.7891,2.7925,2.788,2.7875,2.788,2.7874,2.7865,2.7862,2.7844,2.787,2.7873,2.7898,2.7845,2.7938,2.7942,2.7945,2.7997,2.8005,2.8012,0,0,0,0,0,2.7879,2.7917,2.7902,2.7905,2.7912,2.7927,2.7928,2.7906,2.7882,2.7899,2.7887,2.7862,2.7895,2.7873,2.7877,2.7902,2.7936,2.7941,2.7945,2.7993,2.8003,2.8012,0,0,0,0,0,0,2.7933,2.7915,2.7898,2.7934,2.7932,2.7918,2.7939,2.7918,2.7923,2.7918,2.7891,2.7889,2.7919,2.7913,2.789,2.7944,2.7911,2.7916,2.7947,2.7956,2.7964,2.7964,2.7846,0,0,0,0,0,2.7949,2.7962,2.7947,2.7979,2.7979,2.796,2.7965,2.7948,2.7946,2.7945,2.7935,2.7933,2.7943,2.7949,2.7957,2.7996,2.7992,2.8015,2.8023,2.803,2.8034,2.8052,2.8061,2.7961,2.7961,2.7961,0,0,2.7982,2.7974,2.7984,2.799,2.7986,2.8,2.7959,2.7977,2.7986,2.7947,2.797,2.7964,2.796,2.7992,2.8005,2.7988,2.8061,2.8035,2.8041,2.8041,2.8057,2.8067,2.8075,2.7964,2.7963,2.7963,0,0,2.8048,2.8045,2.807,2.8068,2.8063,2.805,2.8056,2.8045,2.8039,2.8062,2.8032,2.8044,2.8061,2.8059,2.806,2.8125,2.8101,2.8129,2.8169,2.8187,2.8195,2.8202,2.8223,2.8231,2.8133,2.8133,2.8133,0,2.809,2.811,2.8086,2.8105,2.8107,2.8073,2.8098,2.8097,2.8095,2.8097,2.8078,2.8098,2.8093,2.8123,2.8139,2.8142,2.8147,2.8129,2.8196,2.8203,2.8209,2.8228,2.8237,2.8136,2.8136,2.8136,2.8135,0,2.816,2.8175,2.8196,2.8194,2.82,2.8222,2.8201,2.8209,2.8192,2.818,2.8203,2.8196,2.8201,2.8207,2.8191,2.8234,2.8223,2.8201,2.8166,2.8222,2.824,2.8247,2.8141,2.814,2.8139,2.8138,0,0,2.826,2.8244,2.8252,2.825,2.8242,2.8253,2.8273,2.8277,2.8284,2.8284,2.8299,2.8314,2.8293,2.8294,2.8277,2.8293,2.8343,2.8268,2.8268,2.8281,2.8388,2.8404,2.8413,2.8328,2.8329,2.833,2.8388,0,2.8322,2.8355,2.8334,2.8369,2.8381,2.8348,2.8365,2.8362,2.8352,2.836,2.8349,2.8359,2.8331,2.8331,2.8346,2.8334,2.8364,2.833,2.834,2.8341,2.834,2.8423,2.844,2.8494,2.8395,2.8396,2.8397,0,2.8399,2.8401,2.8438,2.8426,2.843,2.8446,2.8448,2.8457,2.8452,2.8443,2.8444,2.8423,2.8441,2.8408,2.8432,2.8409,2.8412,2.8407,2.8409,2.8407,2.8371,2.8422,2.8511,2.8519,2.8408,2.8407,2.8406,0,2.8465,2.8478,2.8501,2.8501,2.8488,2.8499,2.8495,2.8488,2.8492,2.8493,2.8495,2.8499,2.8501,2.8504,2.8484,2.8463,2.851,2.8476,2.8501,2.8502,2.8512,2.8511,2.8601,2.8517,2.8517,2.8517,2.8517,0,2.8536,2.8559,2.853,2.8545,2.8569,2.8545,2.857,2.8562,2.8556,2.8567,2.854,2.8551,2.8525,2.8533,2.8518,2.8538,2.854,2.8532,2.8528,2.8534,2.8534,2.8534,2.8529,2.8519,2.8519,2.8518,2.8518,0,2.8614,2.8595,2.8618,2.8604,2.8601,2.8619,2.8607,2.8619,2.8607,2.8621,2.8623,2.8604,2.8612,2.8593,2.8599,2.8588,2.8617,2.8607,2.8618,2.8615,2.8641,2.8638,2.8732,2.8743,2.8654,2.8655,2.8656,0,2.8659,2.8676,2.8663,2.8668,2.8665,2.8674,2.8677,2.8654,2.8658,2.8653,2.8666,2.8672,2.8675,2.869,2.8676,2.868,2.8668,2.8701,2.8669,2.8674,2.8666,2.8665,2.8666,2.8707,2.8709,2.8709,2.871,0,2.874,2.873,2.8736,2.8738,2.8742,2.8743,2.8742,2.8748,2.8723,2.8729,2.8737,2.8739,2.8745,2.875,2.8751,2.8745,2.8723,2.8721,2.8726,2.8732,2.8737,2.8732,2.8635,2.8718,2.8717,2.8717,2.8716,2.8716,2.8802,2.8815,2.8807,2.8814,2.881,2.8809,2.8819,2.8808,2.8814,2.8816,2.8802,2.8812,2.8806,2.8804,2.8801,2.8809,2.8794,2.8803,2.8804,2.8807,2.881,2.8737,2.8809,2.8809,2.8808,2.8808,2.8808,0,2.888,2.8873,2.888,2.8878,2.8883,2.8862,2.886,2.8865,2.8874,2.887,2.8874,2.8882,2.8887,2.8874,2.8877,2.8885,2.8875,2.8886,2.8885,2.8883,2.8824,2.8818,2.8895,2.8895,2.8895,2.8895,2.8894,2.8894,2.8921,2.8941,2.893,2.8947,2.8941,2.895,2.895,2.8949,2.8945,2.8955,2.8959,2.895,2.8942,2.8944,2.8947,2.8943,2.8945,2.896,2.8952,2.8896,2.8888,2.888,2.8874,2.8961,2.8961,2.901,2.901,2.9011]}]]